KE0YTD Weather Reports


time (UTC)temp
C
wind
direction
speed
KPH
gust
KPH
rain 1hr
cm
rain 24hr
cm
rain mn
cm
humidity
%
barometer
mb
20260505101544 5 28 12.9 19.3 0.00 0.41 0.00 92 1010.9
20260505100051 5 9 11.3 17.7 0.00 0.41 0.00 91 1010.9
20260505094555 5 28 6.4 12.9 0.00 0.41 0.00 91 1011.1
20260505093052 5 28 8.0 12.9 0.00 0.41 0.00 91 1011.0
20260505091553 6 350 4.8 6.4 0.00 0.41 0.00 92 1011.0
20260505090053 6 5 4.8 6.4 0.00 0.41 0.00 92 1010.9
20260505084545 6 40 3.2 6.4 0.00 0.41 0.00 91 1011.1
20260505083045 6 52 4.8 8.0 0.00 0.41 0.00 91 1011.1
20260505081553 6 63 4.8 6.4 0.00 0.41 0.00 92 1011.4
20260505080050 6 86 3.2 6.4 0.00 0.41 0.00 92 1011.3
20260505074549 6 98 3.2 6.4 0.00 0.41 0.00 91 1011.6
20260505073049 6 96 4.8 6.4 0.00 0.41 0.00 92 1011.8
20260505071555 6 101 3.2 4.8 0.00 0.41 0.00 92 1011.9
20260505070105 6 93 1.6 3.2 0.00 0.41 0.00 91 1011.9
20260505064550 6 90 3.2 4.8 0.00 0.41 0.00 90 1012.2
20260505063041 6 86 6.4 9.7 0.03 0.41 0.00 91 1012.1
20260505061548 7 72 3.2 4.8 0.05 0.41 0.00 93 1012.1
20260505060049 7 82 3.2 6.4 0.08 0.41 0.00 94 1012.2
20260505054554 7 11 1.6 3.2 0.25 0.41 0.41 94 1012.3
20260505053056 7 219 1.6 3.2 0.25 0.38 0.38 93 1012.4
20260505051550 7 213 3.2 6.4 0.25 0.36 0.36 93 1012.7
20260505041546 8 244 9.7 17.7 0.10 0.10 0.10 85 1012.5
20260505040053 10 261 9.7 16.1 0.00 0.00 0.00 70 1012.3
20260505034546 10 249 4.8 6.4 0.00 0.00 0.00 67 1011.8
20260505033048 10 308 3.2 6.4 0.00 0.00 0.00 67 1011.6
20260505031546 10 315 1.6 3.2 0.00 0.00 0.00 66 1011.5
20260505030100 10 327 1.6 3.2 0.00 0.00 0.00 65 1011.2
20260505024551 10 315 3.2 4.8 0.00 0.00 0.00 63 1011.1
20260505023057 10 0 0.0 4.8 0.00 0.00 0.00 62 1011.1
20260505021547 10 311 1.6 4.8 0.00 0.00 0.00 62 1010.8
20260505020047 10 313 4.8 9.7 0.00 0.00 0.00 63 1011.0
20260505014546 10 5 14.5 22.5 0.00 0.00 0.00 64 1010.6
20260505013043 11 348 6.4 17.7 0.00 0.00 0.00 57 1010.7
20260505011554 12 261 12.9 19.3 0.00 0.00 0.00 50 1010.7
20260505010058 13 315 4.8 17.7 0.00 0.00 0.00 48 1010.2
20260505004549 13 317 6.4 19.3 0.00 0.00 0.00 46 1010.1
20260505003050 13 265 9.7 22.5 0.00 0.00 0.00 43 1010.1
20260505001550 15 334 12.9 22.5 0.00 0.00 0.00 40 1009.7
20260505000100 15 293 14.5 25.7 0.00 0.00 0.00 38 1009.6
20260504234550 15 329 8.0 25.7 0.00 0.00 0.00 36 1009.4
20260504233053 15 320 12.9 20.9 0.00 0.00 0.00 36 1009.4
20260504231544 15 329 16.1 29.0 0.00 0.00 0.00 36 1009.2
20260504230052 16 330 20.9 33.8 0.00 0.00 0.00 36 1008.9
20260504224552 16 322 24.1 33.8 0.00 0.00 0.00 35 1008.9
20260504223047 16 336 17.7 29.0 0.00 0.00 0.00 33 1008.6
20260504221554 17 304 12.9 27.4 0.00 0.00 0.00 30 1008.3
20260504220110 18 311 11.3 19.3 0.00 0.00 0.00 26 1008.1
20260504214554 19 258 8.0 20.9 0.00 0.00 0.00 25 1008.1
20260504213059 18 311 9.7 22.5 0.00 0.00 0.00 25 1008.3
20260504211556 20 275 6.4 22.5 0.00 0.00 0.00 25 1008.3
20260504210045 20 240 17.7 27.4 0.00 0.00 0.00 25 1008.5
20260504204552 20 248 12.9 20.9 0.00 0.00 0.00 24 1008.7
20260504203053 19 302 9.7 22.5 0.00 0.00 0.00 23 1008.9
20260504201553 20 317 8.0 49.9 0.00 0.00 0.00 23 1008.9
20260504200050 20 61 3.2 12.9 0.00 0.00 0.00 25 1009.0
20260504194547 18 228 3.2 25.7 0.00 0.00 0.00 27 1009.2
20260504193043 17 248 9.7 32.2 0.00 0.00 0.00 25 1009.8
20260504191556 17 240 16.1 38.6 0.00 0.00 0.00 25 1009.3
20260504190057 18 248 12.9 24.1 0.00 0.00 0.00 23 1008.9
20260504184559 18 290 9.7 17.7 0.00 0.00 0.00 24 1009.0
20260504183050 19 313 6.4 14.5 0.00 0.00 0.00 24 1008.9
20260504181550 19 269 8.0 16.1 0.00 0.00 0.00 23 1009.1
20260504180052 19 216 4.8 24.1 0.00 0.00 0.00 23 1009.2
20260504174547 19 296 11.3 20.9 0.00 0.00 0.00 22 1009.5
20260504173047 19 234 9.7 20.9 0.00 0.00 0.00 24 1009.9
20260504171544 19 238 16.1 25.7 0.00 0.00 0.00 26 1010.1